Location: Black Swamp Observatory
(41.3920°N, 84.1250°W)
Time: 02:09:50
(UTC-05:00)

X-37B - Pass Details

Date: 06 December 2021
Orbit: 331 x 339 km, 45.0° (Epoch: 27 January)

Event Time Altitude Azimuth Distance (km) Brightness Sun altitude
Rises 17:57:07 0° 210° (SSW) 2,087 5.2 -9.3°
Reaches altitude 10° 17:59:29 10° 190° (S) 1,254 3.6 -9.7°
Maximum altitude 18:01:28 17° 145° (SE) 921 2.3 -10.1°
Enters shadow 18:03:04 12° 106° (ESE) 1,153 2.5 -10.3°
